Cloud_Cover
30 89 100 100 100 44 48 100 100 100 100 100 100 100 100 99 1 3 28 100 42 9 6 80 12 5 5 4 0 0 0 0 0 0 0 0 68 75 0 1 1 0 8 94 5 0 0 0 0
90 64 98 100 100 95 92 100 85 100 100 100 100 100 100 21 4 7 59 30 97 100 92 4 2 2 3 3 0 0 5 2 0 0 4 100 27 4 11 4 38 99 98 5 0 0 0 0 0
100 28 64 100 100 100 100 100 100 93 100 100 100 100 100 100 5 5 5 3 14 79 78 5 3 3 3 0 0 53 86 5 0 4 83 58 5 13 81 100 99 26 3 3 0 0 0 0 0
100 100 76 83 100 100 100 100 100 100 100 100 68 100 100 7 4 4 2 4 5 81 70 5 5 4 0 0 26 89 5 0 2 36 78 95 4 5 5 15 5 5 0 0 0 0 0 0 0
100 100 100 100 100 100 100 99 100 92 47 5 99 100 100 8 3 18 0 6 5 5 44 46 14 5 4 47 69 15 0 4 7 55 18 16 5 5 5 5 4 10 62 7 3 0 0 0 0
100 100 100 100 100 89 77 86 84 56 100 5 56 100 100 73 4 10 68 19 24 86 78 67 67 5 5 66 86 7 4 2 0 5 1 2 5 4 4 1 5 33 5 4 0 0 0 0 0
92 98 100 100 100 91 94 70 100 73 82 84 86 100 100 99 55 7 56 9 5 41 30 26 25 41 97 100 100 79 91 24 5 5 2 0 0 0 0 5 5 1 0 0 0 0 0 0 0
100 89 100 100 100 100 100 26 33 100 100 64 84 100 100 100 5 5 38 43 40 100 90 72 99 100 99 100 100 100 100 32 5 5 5 0 4 2 8 5 8 6 0 0 0 0 0 0 0
97 13 73 100 100 100 100 100 10 6 54 100 99 100 100 100 41 8 8 43 87 9 82 57 100 100 100 86 66 100 66 5 5 3 1 6 5 5 9 0 6 99 4 0 0 0 0 0 0
68 32 100 100 100 100 100 100 82 17 10 100 80 78 97 100 23 15 39 63 8 64 100 98 100 100 84 100 100 100 87 5 5 5 1 5 5 5 5 4 13 43 5 7 3 2 0 0 1
98 32 100 100 100 100 100 100 100 100 28 5 6 88 100 100 84 37 5 5 99 100 100 100 100 70 92 51 66 100 36 52 50 0 5 5 5 5 5 5 5 22 5 78 42 5 5 0 2
95 35 100 100 100 100 100 100 31 96 100 100 80 37 94 99 100 99 89 99 100 100 100 100 84 5 26 12 51 100 49 5 3 3 64 5 10 56 100 7 6 94 100 63 87 85 22 68 5
20 54 49 100 100 100 100 100 100 98 100 100 100 100 100 100 100 100 100 100 100 100 100 97 60 97 36 61 25 65 4 3 2 5 21 58 77 97 59 61 57 83 100 68 30 100 9 36 10
100 97 99 100 100 100 100 100 100 100 100 100 100 100 100 100 100 100 100 100 100 100 100 100 100 95 98 98 11 11 2 5 0 1 5 41 31 50 94 94 77 65 100 99 100 100 89 23 70
100 100 93 76 100 100 100 62 100 100 100 96 100 100 100 100 100 100 100 100 100 100 100 100 98 54 49 5 5 5 1 0 0 0 2 4 5 96 100 74 5 5 100 100 100 100 100 100 100
98 98 8 61 100 100 100 20 21 100 100 100 100 100 100 32 5 93 99 67 98 91 12 5 5 5 5 5 5 1 0 3 0 0 0 28 24 96 37 5 7 5 80 100 100 100 100 100 100
5 58 79 100 100 100 100 4 3 94 75 79 93 15 5 70 100 99 100 100 94 86 5 5 5 5 5 5 0 0 0 5 0 4 5 48 94 27 22 5 5 35 94 100 100 100 100 100 100
93 47 62 5 100 100 89 0 22 82 90 4 7 6 21 28 66 100 100 100 18 5 6 42 5 5 5 3 0 0 2 2 4 3 20 58 70 5 74 5 65 82 85 33 98 100 100 100 36
0 2 5 30 18 100 80 4 96 79 32 3 2 5 5 5 17 35 100 100 23 5 5 5 50 5 4 0 0 3 31 5 23 22 70 10 15 18 63 8 70 100 85 95 100 64 29 52 88
0 0 0 9 33 27 5 5 4 82 5 0 0 5 5 5 91 96 61 8 5 5 6 10 3 4 10 4 2 5 3 32 69 94 38 39 45 92 72 52 30 98 100 5 5 31 94 98 100
4 5 4 0 16 5 0 0 0 4 5 4 0 4 36 100 98 38 5 5 5 5 0 1 24 33 5 5 1 0 27 93 99 85 100 100 95 76 57 58 100 38 5 0 0 41 82 47 100
87 63 33 4 3 1 0 0 0 11 33 29 100 86 99 100 98 5 0 0 0 0 6 28 47 32 3 0 0 0 0 7 8 94 100 100 78 54 26 79 26 0 22 92 88 30 85 68 53
5 99 98 100 43 5 0 3 0 0 5 99 100 100 100 88 40 5 5 0 0 28 100 95 41 5 5 0 0 0 0 0 0 14 98 100 74 60 45 2 4 0 100 100 18 43 39 27 42
40 3 4 100 100 68 0 3 0 0 0 2 100 98 84 89 13 6 5 21 100 100 100 97 42 0 0 0 0 0 0 0 0 32 48 44 36 24 13 0 0 0 56 6 0 10 34 32 71
55 100 5 16 95 5 0 0 0 0 0 0 1 87 100 74 5 0 23 100 100 56 12 7 5 0 0 0 0 0 0 0 9 24 4 26 14 7 0 0 2 0 0 0 0 4 62 99 92
11 5 85 2 2 0 0 0 0 0 0 0 0 0 0 0 0 0 0 3 9 0 20 100 2 9 0 0 0 0 0 0 0 0 0 0 0 0 0 0 0 0 0 0 0 94 82 98 100
100 99 1 5 0 0 0 0 0 0 0 0 0 0 0 0 0 0 0 0 0 81 100 16 3 18 4 0 0 0 0 5 5 13 0 0 0 0 0 0 0 0 0 0 3 4 20 41 96
100 100 81 96 4 0 0 0 0 1 1 0 0 0 0 0 0 0 1 27 100 100 65 45 16 2 0 0 0 4 6 14 4 0 0 0 0 0 0 0 0 0 0 0 21 38 52 100 100
100 100 87 97 2 4 2 0 5 3 29 0 0 0 0 0 0 59 100 100 100 64 52 43 6 0 0 0 1 5 5 5 0 0 0 0 0 0 0 0 0 0 0 8 90 85 72 98 100
100 100 98 63 6 2 2 0 0 1 88 0 0 0 0 83 100 100 100 100 97 53 41 18 0 5 5 5 5 64 5 0 0 0 0 0 0 0 0 0 0 0 5 30 12 100 100 100 100